| time (UTC) | temp F | wind direction | speed MPH | gust MPH | rain 1hr in | rain 24hr in | rain mn in | humidity % | barometer mb |
| 20260502163052 | 67 | 204 | 6.0 | 14.0 | 0.00 | 0.00 | 0.00 | 52 | 1021.2 |
| 20260502161558 | 67 | 360 | 6.0 | 10.0 | 0.00 | 0.00 | 0.00 | 51 | 1021.3 |
| 20260502151558 | 68 | 219 | 8.0 | 15.0 | 0.00 | 0.00 | 0.00 | 51 | 1021.3 |
| 20260502123034 | 70 | 246 | 7.0 | 16.0 | 0.00 | 0.00 | 0.00 | 45 | 1022.0 |
| 20260502121533 | 70 | 181 | 5.0 | 13.0 | 0.00 | 0.00 | 0.00 | 45 | 1022.1 |
| 20260502114530 | 70 | 227 | 5.0 | 11.0 | 0.00 | 0.00 | 0.00 | 43 | 1022.2 |
| 20260502113027 | 70 | 151 | 4.0 | 12.0 | 0.00 | 0.00 | 0.00 | 40 | 1022.3 |
| 20260502111526 | 69 | 146 | 6.0 | 11.0 | 0.00 | 0.00 | 0.00 | 40 | 1022.5 |
| 20260502110024 | 70 | 202 | 4.0 | 9.0 | 0.00 | 0.00 | 0.00 | 36 | 1022.6 |
| 20260502104527 | 68 | 130 | 6.0 | 10.0 | 0.00 | 0.00 | 0.00 | 39 | 1022.7 |
| 20260502103017 | 68 | 222 | 8.0 | 12.0 | 0.00 | 0.00 | 0.00 | 37 | 1022.9 |
| 20260502101516 | 68 | 206 | 7.0 | 15.0 | 0.00 | 0.00 | 0.00 | 35 | 1023.1 |
| 20260502091502 | 69 | 360 | 4.0 | 9.0 | 0.00 | 0.00 | 0.00 | 29 | 1023.0 |
| 20260502071526 | 64 | 291 | 4.0 | 8.0 | 0.00 | 0.00 | 0.00 | 34 | 1022.9 |
| 20260502070024 | 63 | 34 | 2.0 | 6.0 | 0.00 | 0.00 | 0.00 | 35 | 1023.0 |
| 20260502064527 | 62 | 284 | 3.0 | 6.0 | 0.00 | 0.00 | 0.00 | 36 | 1022.8 |
| 20260502063012 | 61 | 15 | 2.0 | 4.0 | 0.00 | 0.00 | 0.00 | 36 | 1022.9 |
| 20260502061509 | 61 | 360 | 1.0 | 3.0 | 0.00 | 0.00 | 0.00 | 36 | 1022.9 |
| 20260502060010 | 62 | 360 | 0.0 | 3.0 | 0.00 | 0.00 | 0.00 | 36 | 1022.9 |
| 20260502054502 | 61 | 55 | 0.0 | 0.0 | 0.00 | 0.00 | 0.00 | 37 | 1022.9 |
| 20260502053106 | 59 | 55 | 0.0 | 0.0 | 0.00 | 0.00 | 0.00 | 41 | 1022.8 |
| 20260502051600 | 57 | 55 | 0.0 | 0.0 | 0.00 | 0.00 | 0.00 | 43 | 1022.7 |
| 20260502050055 | 55 | 55 | 0.0 | 0.0 | 0.00 | 0.00 | 0.00 | 49 | 1022.7 |
| 20260502044546 | 55 | 360 | 0.0 | 0.0 | 0.00 | 0.00 | 0.00 | 49 | 1022.7 |
| 20260502043042 | 55 | 55 | 0.0 | 0.0 | 0.00 | 0.00 | 0.00 | 48 | 1022.5 |
| 20260502041541 | 55 | 38 | 0.0 | 0.0 | 0.00 | 0.00 | 0.00 | 46 | 1022.4 |
| 20260502040039 | 55 | 11 | 0.0 | 0.0 | 0.00 | 0.00 | 0.00 | 44 | 1022.3 |
| 20260502034539 | 55 | 11 | 0.0 | 0.0 | 0.00 | 0.00 | 0.00 | 44 | 1022.4 |
| 20260502033039 | 55 | 11 | 0.0 | 0.0 | 0.00 | 0.00 | 0.00 | 44 | 1022.5 |
| 20260502031542 | 55 | 11 | 0.0 | 0.0 | 0.00 | 0.00 | 0.00 | 43 | 1022.4 |
| 20260502030035 | 56 | 11 | 0.0 | 3.0 | 0.00 | 0.00 | 0.00 | 42 | 1022.2 |
| 20260502024536 | 56 | 11 | 1.0 | 3.0 | 0.00 | 0.00 | 0.00 | 43 | 1022.3 |
| 20260502023034 | 55 | 61 | 0.0 | 0.0 | 0.00 | 0.00 | 0.00 | 46 | 1022.3 |
| 20260502021534 | 56 | 61 | 0.0 | 0.0 | 0.00 | 0.00 | 0.00 | 45 | 1022.3 |
| 20260502020032 | 56 | 61 | 0.0 | 2.0 | 0.00 | 0.00 | 0.00 | 46 | 1022.2 |
| 20260502014533 | 56 | 61 | 0.0 | 3.0 | 0.00 | 0.00 | 0.00 | 46 | 1022.3 |
| 20260502013027 | 57 | 38 | 0.0 | 2.0 | 0.00 | 0.00 | 0.00 | 44 | 1022.2 |
| 20260502011543 | 57 | 21 | 0.0 | 3.0 | 0.00 | 0.00 | 0.00 | 44 | 1022.2 |
| 20260502010025 | 57 | 360 | 0.0 | 1.0 | 0.00 | 0.00 | 0.00 | 43 | 1022.2 |
| 20260502004524 | 59 | 360 | 1.0 | 3.0 | 0.00 | 0.00 | 0.00 | 40 | 1022.3 |
| 20260502003023 | 59 | 87 | 1.0 | 4.0 | 0.00 | 0.00 | 0.00 | 36 | 1022.4 |
| 20260502001517 | 60 | 360 | 2.0 | 4.0 | 0.00 | 0.00 | 0.00 | 36 | 1022.5 |
| 20260502000013 | 61 | 73 | 0.0 | 6.0 | 0.00 | 0.00 | 0.00 | 34 | 1022.5 |
| 20260501234512 | 62 | 87 | 3.0 | 8.0 | 0.00 | 0.00 | 0.00 | 33 | 1022.5 |
| 20260501233012 | 62 | 134 | 3.0 | 8.0 | 0.00 | 0.00 | 0.00 | 35 | 1022.6 |
| 20260501231515 | 62 | 103 | 3.0 | 11.0 | 0.00 | 0.00 | 0.00 | 34 | 1022.6 |
| 20260501230008 | 62 | 269 | 1.0 | 4.0 | 0.00 | 0.00 | 0.00 | 33 | 1022.6 |
| 20260501224506 | 62 | 269 | 0.0 | 7.0 | 0.00 | 0.00 | 0.00 | 34 | 1022.5 |
| 20260501223002 | 61 | 39 | 1.0 | 4.0 | 0.00 | 0.00 | 0.00 | 38 | 1022.5 |
| 20260501221618 | 61 | 34 | 1.0 | 5.0 | 0.00 | 0.00 | 0.00 | 38 | 1022.3 |
| 20260501220100 | 61 | 88 | 1.0 | 4.0 | 0.00 | 0.00 | 0.00 | 40 | 1022.1 |
| 20260501214559 | 61 | 55 | 1.0 | 4.0 | 0.00 | 0.00 | 0.00 | 39 | 1022.1 |
| 20260501213056 | 62 | 65 | 3.0 | 7.0 | 0.00 | 0.00 | 0.00 | 41 | 1022.1 |
| 20260501211558 | 62 | 107 | 4.0 | 9.0 | 0.00 | 0.00 | 0.00 | 41 | 1021.9 |
| 20260501210052 | 63 | 151 | 2.0 | 5.0 | 0.00 | 0.00 | 0.00 | 40 | 1021.7 |
| 20260501204549 | 63 | 144 | 1.0 | 4.0 | 0.00 | 0.00 | 0.00 | 40 | 1021.7 |
| 20260501203048 | 63 | 109 | 5.0 | 7.0 | 0.00 | 0.00 | 0.00 | 41 | 1021.5 |
| 20260501201647 | 63 | 44 | 0.0 | 5.0 | 0.00 | 0.00 | 0.00 | 43 | 1021.4 |
| 20260501200045 | 63 | 77 | 0.0 | 6.0 | 0.00 | 0.00 | 0.00 | 43 | 1021.3 |
| 20260501194548 | 63 | 11 | 1.0 | 5.0 | 0.00 | 0.00 | 0.00 | 43 | 1021.1 |
| 20260501193042 | 63 | 99 | 2.0 | 8.0 | 0.00 | 0.00 | 0.00 | 43 | 1020.8 |
| 20260501191540 | 64 | 41 | 3.0 | 9.0 | 0.00 | 0.00 | 0.00 | 44 | 1020.5 |
| 20260501190054 | 64 | 57 | 3.0 | 12.0 | 0.00 | 0.00 | 0.00 | 44 | 1020.2 |
| 20260501184537 | 65 | 33 | 3.0 | 12.0 | 0.00 | 0.00 | 0.00 | 45 | 1020.0 |
| 20260501183032 | 65 | 92 | 3.0 | 11.0 | 0.00 | 0.00 | 0.00 | 44 | 1019.8 |
| 20260501181531 | 66 | 90 | 7.0 | 19.0 | 0.00 | 0.00 | 0.00 | 43 | 1019.6 |
| 20260501180030 | 66 | 61 | 9.0 | 16.0 | 0.00 | 0.00 | 0.00 | 42 | 1019.3 |
| 20260501174528 | 66 | 360 | 7.0 | 18.0 | 0.00 | 0.00 | 0.00 | 43 | 1019.1 |
| 20260501173029 | 67 | 360 | 11.0 | 20.0 | 0.00 | 0.00 | 0.00 | 42 | 1019.0 |
| 20260501171527 | 67 | 71 | 10.0 | 19.0 | 0.00 | 0.00 | 0.00 | 44 | 1018.9 |
| 20260501170126 | 68 | 360 | 9.0 | 16.0 | 0.00 | 0.00 | 0.00 | 44 | 1018.8 |
| 20260501164529 | 69 | 360 | 8.0 | 18.0 | 0.00 | 0.00 | 0.00 | 43 | 1018.5 |